Retour au catalogue

EXPLORER 22

ActifScienceLEO
NORAD 899·PAYLOAD·🇺🇸 United States

Lancé Oct 10, 1964 depuis Vandenberg Space Force Base

Loading…

Prochains Passages (prochaines 24 heures)

TLE

FraisSource: Space-Track

Époque: Sep 14, 2026, 15:44 UTC

1 00899U 64064A   26257.65581429  .00000138  00000-0  11488-3 0  9995
2 00899  79.6919  29.0888 0118887 336.2197  23.3485 13.83074859117347

Suivez EXPLORER 22 en temps réel avec AllMySat

Download on the App Store